Location: Unspecified
(0.0000°N, 0.0000°E)
Time: 19:35:05
(UTC+00:00)

Vanguard 1 - Pass Details

Date: 18 April 2026
Orbit: 654 x 3817 km, 34.2° (Epoch: 18 May)

Event Time Altitude Azimuth Distance (km) Brightness Sun altitude
Rises 01:11:05 0° 299° (WNW) 7,936 14.6 -69.2°
Reaches altitude 10° 01:20:42 10° 317° (NW) 6,837 14.2 -67.1°
Maximum altitude 01:32:51 17° 351° (N) 5,765 13.9 -64.4°
Drops below altitude 10° 01:42:56 10° 26° (NNE) 5,575 14.1 -62.1°
Sets 01:49:16 0° 46° (NE) 5,964 14.5 -60.7°
